Location: Pine Mountain Observatory
(43.7910°N, 120.9377°W)
Time: 14:59:03
(UTC-07:00)

Cosmos 1867 - Visible Passes

Search period start: 25 August 2016 00:00
Search period end: 04 September 2016 00:00
Orbit: 773 x 802 km, 65.0° (Epoch: 25 August)

Date Brightness Start Highest point End Pass type
(mag) Time Alt. Az. Time Alt. Az. Time Alt. Az.
25 Aug 5.9 01:39:34 15° ENE 01:39:34 15° ENE 01:40:56 10° ENE visible
25 Aug 3.7 03:20:13 64° NW 03:20:13 64° NW 03:25:32 10° NNE visible
25 Aug 5.6 05:01:23 10° WNW 05:04:45 16° NNW 05:08:07 10° N visible
26 Aug 4.1 02:49:31 58° NNE 02:49:31 58° NNE 02:53:55 10° NNE visible
26 Aug 5.4 04:30:11 14° WNW 04:32:49 19° NW 04:36:44 10° N visible
27 Aug 4.7 02:18:48 39° NE 02:18:48 39° NE 02:22:15 10° NE visible
27 Aug 5.1 03:59:27 21° WNW 04:00:55 24° NW 04:05:18 10° NNE visible
28 Aug 5.3 01:48:02 26° NE 01:48:02 26° NE 01:50:31 10° NE visible
28 Aug 4.9 03:28:42 29° NW 03:29:04 29° NW 03:33:50 10° NNE visible
29 Aug 5.8 01:17:16 18° NE 01:17:16 18° NE 01:18:43 10° NE visible
29 Aug 4.7 02:57:55 35° NNW 02:57:55 35° NNW 03:02:20 10° NNE visible
29 Aug 6.0 04:40:54 10° NW 04:42:31 11° NNW 04:44:08 10° N visible
30 Aug 6.2 00:46:27 12° NE 00:46:27 12° NE 00:46:49 10° NE visible
30 Aug 4.9 02:27:07 36° N 02:27:07 36° N 02:30:48 10° NNE visible
30 Aug 5.9 04:07:58 10° NW 04:10:30 13° NNW 04:13:02 10° N visible
31 Aug 5.2 01:56:17 31° NNE 01:56:17 31° NNE 01:59:13 10° NNE visible
31 Aug 5.7 03:36:56 14° NW 03:38:31 16° NNW 03:41:46 10° N visible
01 Sep 5.5 01:25:26 25° NNE 01:25:26 25° NNE 01:27:37 10° NNE visible
01 Sep 5.6 03:06:05 18° NW 03:06:34 19° NW 03:10:23 10° N visible
02 Sep 5.9 00:54:34 18° NE 00:54:34 18° NE 00:55:58 10° NE visible
02 Sep 5.5 02:35:13 22° NNW 02:35:13 22° NNW 02:38:58 10° NNE visible
03 Sep 6.1 00:23:40 13° NE 00:23:40 13° NE 00:24:15 10° NE visible
03 Sep 5.5 02:04:19 24° NNW 02:04:19 24° NNW 02:07:30 10° NNE visible
